DW2050 Weather Reports


time (UTC)temp
C
wind
direction
speed
KPH
gust
KPH
rain 1hr
cm
rain 24hr
cm
rain mn
cm
humidity
%
barometer
mb
20260503184551 26 12 1.6 6.4 0.00 0.00 0.00 46 1011.4
20260503183050 25 0 0.0 3.2 0.00 0.00 0.00 49 1011.6
20260503181552 23 26 0.0 4.8 0.00 0.00 0.00 52 1011.7
20260503180058 22 0 0.0 6.4 0.00 0.00 0.00 58 1011.8
20260503174554 21 0 0.0 3.2 0.00 0.00 0.00 60 1011.9
20260503173100 20 0 0.0 8.0 0.00 0.00 0.00 62 1011.9
20260503171554 20 0 1.6 8.0 0.00 0.00 0.00 64 1012.0
20260503170105 19 0 0.0 8.0 0.00 0.00 0.00 66 1012.0
20260503160106 17 0 0.0 3.2 0.00 0.00 0.00 74 1012.1
20260503100104 13 0 0.0 0.0 0.00 0.00 0.00 87 1012.3
20260503081552 14 0 0.0 0.0 0.00 0.00 0.00 85 1012.8
20260503080103 14 0 0.0 0.0 0.00 0.00 0.00 85 1012.7
20260503071610 14 0 0.0 0.0 0.00 0.00 0.00 85 1012.9
20260503054613 15 0 0.0 0.0 0.00 0.00 0.00 82 1013.0
20260503053052 15 0 0.0 0.0 0.00 0.00 0.00 81 1012.9
20260503051601 16 0 0.0 0.0 0.00 0.00 0.00 81 1012.7
20260503050059 16 0 0.0 1.6 0.00 0.00 0.00 80 1012.8
20260503044600 16 0 0.0 3.2 0.00 0.00 0.00 80 1013.0
20260503043058 16 355 0.0 3.2 0.00 0.00 0.00 80 1012.5
20260503041600 16 355 1.6 3.2 0.00 0.00 0.00 80 1012.5
20260503040057 16 0 0.0 1.6 0.00 0.00 0.00 78 1012.9
20260503034558 16 0 0.0 0.0 0.00 0.00 0.00 77 1012.9
20260503033104 17 0 0.0 1.6 0.00 0.00 0.00 76 1012.7
20260503031553 17 0 0.0 1.6 0.00 0.00 0.00 75 1012.4
20260503030055 17 0 0.0 1.6 0.00 0.00 0.00 74 1012.3
20260503024549 17 0 0.0 4.8 0.00 0.00 0.00 74 1012.4
20260503023057 17 0 0.0 8.0 0.00 0.00 0.00 73 1012.7
20260503021552 18 229 1.6 9.7 0.00 0.00 0.00 72 1012.8
20260503020053 18 192 0.0 8.0 0.00 0.00 0.00 71 1012.8
20260503014601 19 0 0.0 3.2 0.00 0.00 0.00 69 1012.1
20260503013051 19 0 0.0 1.6 0.00 0.00 0.00 69 1012.0
20260503011553 19 0 0.0 3.2 0.00 0.00 0.00 68 1012.0
20260503010055 20 0 0.0 4.8 0.00 0.00 0.00 67 1011.9
20260503004616 20 0 0.0 3.2 0.00 0.00 0.00 68 1011.8
20260503003055 20 0 0.0 4.8 0.00 0.00 0.00 66 1011.8
20260503001555 20 128 0.0 6.4 0.00 0.00 0.00 65 1011.8
20260503000053 20 246 1.6 9.7 0.00 0.00 0.00 64 1011.8
20260502234556 21 290 0.0 9.7 0.00 0.00 0.00 63 1012.0
20260502233047 21 0 0.0 4.8 0.00 0.00 0.00 61 1012.2
20260502231559 21 0 0.0 3.2 0.00 0.00 0.00 59 1012.4
20260502230051 21 0 0.0 3.2 0.00 0.00 0.00 61 1012.6
20260502224550 21 355 0.0 6.4 0.00 0.00 0.00 61 1012.9
20260502223057 20 0 0.0 3.2 0.00 0.00 0.00 63 1013.1
20260502221558 19 0 0.0 3.2 0.00 0.00 0.00 64 1013.4
20260502220055 19 254 1.6 6.4 0.00 0.00 0.00 62 1013.5
20260502214557 19 0 0.0 3.2 0.00 0.00 0.00 66 1013.8
20260502213054 18 0 0.0 4.8 0.00 0.00 0.00 68 1014.0
20260502211555 18 44 0.0 3.2 0.00 0.00 0.00 67 1014.2
20260502210106 17 0 0.0 4.8 0.00 0.00 0.00 70 1014.4
20260502204555 17 346 0.0 6.4 0.00 0.00 0.00 70 1014.6
20260502203052 16 0 0.0 4.8 0.00 0.00 0.00 74 1015.0
20260502201553 15 24 0.0 4.8 0.00 0.00 0.00 79 1015.1
20260502200055 14 360 0.0 4.8 0.00 0.00 0.00 78 1015.1
20260502194557 14 198 0.0 4.8 0.00 0.00 0.00 82 1015.3
20260502193054 13 0 1.6 6.4 0.00 0.00 0.00 85 1015.4
20260502191558 12 0 0.0 3.2 0.00 0.00 0.00 86 1015.6
20260502190054 12 0 0.0 4.8 0.00 0.00 0.00 85 1016.1